Location: Unspecified
(41.5000°N, 0.0000°E)
Time: 01:33:57
(UTC+00:00)

Vanguard 3 - Pass Details

Date: 23 June 2019
Orbit: 508 x 3263 km, 33.3° (Epoch: 18 August)

Event Time Altitude Azimuth Distance (km) Brightness Sun altitude
Rises 15:15:40 0° 270° (W) 4,596 11.7 46.1°
Reaches altitude 10° 15:19:49 10° 260° (W) 3,128 11.2 45.3°
Maximum altitude 15:25:39 27° 205° (SSW) 1,571 9.3 44.2°
Drops below altitude 10° 15:29:39 10° 147° (SSE) 2,078 9.2 43.5°
Sets 15:31:51 0° 134° (SE) 2,811 9.6 43.1°
